SCP
0 0 0 0 0 0 0 0 0 0 0 0 0 0 0 0 0 0 0 0 0 0 0 0 0 0 0 0 0 0 0 0 0 0 0 0 0 0 0 0 1 0 0
0 0 0 0 0 0 0 0 0 0 0 0 0 0 0 0 0 0 0 0 0 0 0 0 0 0 0 0 0 0 0 0 0 0 0 0 0 0 0 1 0 0 0
0 0 0 0 0 0 0 0 0 0 0 0 0 0 0 0 0 0 0 0 1 1 0 0 0 0 0 0 0 0 0 0 0 0 0 0 0 0 0 0 1 0 0
0 0 0 0 0 0 0 0 0 0 0 0 0 0 0 0 0 0 -0 -0 0 0 0 0 0 0 0 0 0 0 0 0 0 0 0 0 0 0 0 0 0 0 1
0 0 0 0 0 0 0 0 0 0 0 0 0 0 0 0 0 0 -0 -0 -0 -0 0 0 0 0 0 0 0 0 0 0 0 0 0 0 0 0 0 0 0 0 0
0 0 0 0 0 0 0 0 0 0 0 0 0 0 0 0 0 0 0 0 -0 -0 -0 0 0 0 -0 -0 0 0 0 0 0 0 0 0 0 0 0 0 0 0 0
0 0 0 0 0 0 0 0 0 0 0 0 0 0 0 0 0 0 0 0 0 0 0 0 0 0 0 0 0 0 0 -0 0 0 0 0 0 0 0 0 0 0 0
0 0 0 0 0 0 0 0 0 0 0 0 0 0 0 0 0 0 0 0 0 0 0 0 0 0 0 0 0 0 0 0 0 0 0 0 0 0 0 0 0 0 0
0 0 0 0 0 0 0 0 0 0 0 0 0 0 0 0 0 0 0 0 0 0 0 0 0 0 0 0 0 0 0 0 0 0 0 0 0 0 0 0 0 0 0
0 0 0 0 0 0 0 0 0 0 0 0 0 0 0 0 0 0 0 0 0 0 0 0 0 0 0 0 0 0 0 0 0 0 0 0 0 0 0 0 0 0 0
0 0 0 0 0 0 0 0 0 0 0 0 0 0 0 0 0 0 0 0 0 0 0 0 0 0 0 0 0 0 0 0 0 0 0 0 0 0 0 0 0 0 0
0 0 0 0 0 0 0 0 0 0 0 0 0 0 0 0 0 0 0 0 0 0 0 0 0 0 0 0 0 0 0 0 0 0 0 0 0 0 0 0 0 0 0
0 0 0 0 0 0 0 0 0 0 0 0 0 0 0 0 0 0 0 0 0 0 0 0 0 0 0 0 0 0 0 0 0 0 0 0 0 0 0 0 0 0 0
0 0 0 0 0 0 0 0 0 0 0 0 0 0 0 0 0 0 0 0 0 0 0 0 0 0 0 0 0 0 0 0 0 0 0 0 0 0 0 0 0 0 0
0 0 0 0 0 0 0 0 0 0 0 0 0 0 0 0 0 0 0 -0 -0 -0 0 0 0 0 0 0 0 0 0 0 0 0 0 0 0 0 0 0 0 0 0
0 0 0 0 0 0 0 0 0 0 0 0 0 0 0 0 0 0 0 -0 -0 -0 -0 -0 -0 0 0 0 0 0 0 0 0 0 0 0 0 0 0 0 0 0 0
0 0 0 0 0 0 0 0 0 0 0 0 0 0 0 0 0 0 0 -0 0 -0 -0 -0 -0 0 -0 0 0 0 0 0 0 0 0 0 0 0 0 0 0 0 0
0 0 0 0 0 0 0 0 0 0 0 0 0 0 0 0 0 0 0 0 -0 0 -0 -0 0 0 0 0 0 0 0 0 0 0 0 0 0 0 -0 0 0 0 0
0 0 0 0 0 0 0 0 0 0 0 0 0 0 0 0 0 0 0 0 0 0 0 -0 -0 0 0 0 0 0 0 0 0 0 0 0 0 -0 -0 0 0 0 0
0 0 0 0 0 0 0 0 0 0 0 0 0 0 0 0 0 0 0 0 0 0 0 -0 -0 -0 -0 0 0 0 0 0 0 0 0 0 -0 -0 -0 0 0 0 0
0 0 0 0 0 0 0 0 0 0 0 0 0 0 0 0 0 0 0 0 0 0 0 -0 -0 0 0 0 0 0 0 0 -0 0 0 0 -0 0 -0 0 0 0 0
0 0 0 0 0 0 0 0 0 0 0 0 0 0 0 0 0 0 0 0 0 0 0 0 0 0 0 0 0 0 -0 -0 -0 0 0 -0 0 -0 0 0 0 0 0
0 0 0 0 0 0 0 0 0 0 0 0 0 0 0 0 0 0 0 0 0 0 0 0 0 0 0 0 0 0 -0 -0 -0 -0 0 0 0 0 0 0 -0 -0 -0
0 0 0 0 0 0 0 0 0 0 0 0 0 0 0 0 0 0 0 0 0 0 0 0 0 0 0 0 0 -0 -0 0 0 0 0 -0 0 0 -0 0 0 -0 -0
0 0 0 0 0 0 0 0 0 0 0 0 0 0 0 0 0 0 0 0 0 0 0 0 0 0 0 0 0 0 0 0 -0 -0 0 -0 0 -0 0 0 -0 -0 -0
0 0 0 0 0 0 0 0 0 0 0 0 0 0 0 0 0 0 0 0 0 0 0 0 0 0 0 0 0 -0 0 0 -0 -0 0 -0 0 0 0 0 -0 -0 0
Wind_Speed_500mb
41 45 45 45 43 41 40 36 31 32 35 34 33 33 38 36 37 40 42 57 59 61 54 42 42 32 27 22 19 14 8 6 9 13 22 26 27 25 22 22 21 23 35
43 42 44 46 45 46 45 42 40 37 37 37 36 33 30 33 39 37 41 43 56 67 65 55 44 41 30 25 22 17 13 11 10 12 17 21 28 29 27 23 27 24 45
42 41 45 47 48 48 45 46 43 39 35 35 37 37 34 29 28 33 43 36 50 65 72 50 51 48 40 30 26 18 21 21 20 19 17 18 22 30 31 30 29 31 36
42 44 46 48 50 49 48 46 46 43 38 35 35 32 32 30 25 25 27 42 43 63 72 67 51 47 43 38 42 33 33 26 24 21 17 15 11 22 31 35 35 37 41
43 46 49 50 50 49 46 44 38 38 38 36 36 29 24 25 23 21 14 15 25 44 34 58 66 48 54 52 46 35 38 30 22 15 13 13 13 15 22 32 39 41 44
46 49 49 47 44 43 40 44 41 31 30 34 32 25 16 10 11 11 8 10 10 4 15 23 38 34 47 46 29 27 30 28 21 22 21 24 24 26 27 31 37 46 48
47 48 45 43 42 42 43 43 43 35 28 33 26 21 13 8 15 13 17 10 6 11 12 15 13 20 14 13 13 12 12 7 18 26 30 34 34 36 35 34 40 46 54
47 45 44 42 42 42 42 43 45 41 31 32 25 18 15 5 11 11 10 11 14 12 13 16 20 22 22 19 16 17 20 22 27 30 30 38 38 35 34 32 35 44 51
46 42 40 39 41 43 42 43 42 42 39 27 25 18 13 10 21 8 10 9 7 6 6 15 16 15 15 14 15 16 20 24 30 32 33 35 36 35 35 39 39 41 48
42 41 38 38 40 42 42 42 40 40 36 33 25 18 10 16 10 9 8 14 12 5 2 8 10 12 12 14 17 21 25 26 30 33 35 33 39 39 42 41 42 44 46
39 39 38 39 39 43 43 43 40 36 32 28 28 30 21 12 8 10 15 16 13 11 10 10 12 15 17 18 20 26 28 32 34 36 40 41 41 44 47 50 50 46 50
37 37 39 38 40 42 44 43 39 33 28 26 27 24 21 18 16 10 16 14 12 7 8 10 12 14 16 20 23 27 29 32 32 36 37 40 44 47 50 53 52 50 48
38 39 39 39 41 42 43 39 34 30 25 23 25 26 21 18 18 16 15 14 10 14 13 10 10 9 10 11 16 20 25 30 33 32 32 35 36 41 47 52 55 55 53
36 36 35 36 37 40 44 38 30 29 26 19 22 25 22 21 20 16 14 14 12 11 9 7 8 11 14 15 19 24 27 27 31 33 32 33 38 39 38 40 46 54 56
32 31 31 33 35 38 41 39 31 28 28 25 25 25 23 21 19 17 12 11 5 6 6 5 8 16 14 18 21 15 16 20 26 32 38 40 40 49 51 45 44 50 56
28 26 26 27 32 36 39 38 35 30 25 25 25 26 27 26 18 16 15 10 5 8 10 15 9 16 15 15 10 9 10 16 19 21 26 33 40 47 48 47 50 50 53
26 22 20 22 26 30 34 37 36 34 31 30 31 30 27 26 23 15 13 13 10 8 10 15 12 18 19 15 17 22 26 29 27 29 32 32 32 39 45 50 56 58 59
23 20 19 18 21 23 29 32 34 36 37 33 32 29 27 26 23 16 13 10 11 11 13 15 18 13 16 20 26 30 31 32 34 35 39 45 43 46 51 56 55 57 61
21 21 19 18 19 19 26 29 31 33 36 34 31 29 30 31 32 23 10 11 11 13 12 12 14 15 16 17 18 18 23 28 34 35 34 34 36 45 53 52 49 53 57
19 21 21 19 19 19 22 25 28 30 31 30 26 22 26 30 34 39 25 14 15 14 14 17 21 22 19 14 15 15 17 22 26 26 29 35 40 46 49 45 43 46 52
17 19 21 21 20 20 22 25 27 28 27 26 24 21 21 25 27 28 28 28 23 20 19 20 20 16 14 13 17 18 29 31 33 30 30 37 46 43 43 43 39 41 48
17 19 24 26 24 21 22 24 27 26 24 25 26 23 23 23 24 24 24 22 21 23 20 21 14 16 9 13 20 27 29 31 34 33 41 39 39 42 38 39 34 39 40
22 25 26 31 34 31 29 27 27 27 25 26 27 27 27 27 27 27 25 24 23 22 21 20 18 13 13 18 27 32 29 32 33 30 32 41 45 35 31 35 25 23 22
25 28 28 33 37 35 32 32 34 34 31 30 29 28 29 31 30 33 28 26 24 24 25 23 21 20 20 20 26 33 35 29 28 25 31 35 44 45 29 27 12 7 16
27 31 33 33 43 36 31 32 37 40 39 35 34 33 32 33 33 33 34 25 19 19 25 21 17 16 19 22 25 30 26 21 24 22 22 36 41 44 24 34 13 1 4
32 39 42 46 48 40 34 32 33 38 42 38 37 37 34 34 35 33 34 29 24 18 20 23 21 22 23 27 27 24 27 15 19 19 25 35 41 39 17 28 17 11 12
Wind_Direction_500mb
2 3 7 8 7 4 359 352 336 328 328 326 319 313 288 287 279 264 254 244 239 223 211 217 213 210 210 211 208 210 219 247 272 270 254 240 235 241 248 238 234 213 210
8 11 10 9 7 5 3 357 349 332 317 317 317 317 316 304 289 277 264 251 237 230 214 216 209 210 217 215 213 220 238 246 267 273 271 266 248 239 236 237 241 234 210
6 8 5 2 359 357 356 355 353 349 335 320 307 302 303 306 305 283 274 244 235 218 208 212 212 213 214 212 202 226 243 251 256 259 257 258 260 248 239 232 232 239 217
10 5 358 352 351 350 348 346 343 347 348 345 335 318 299 296 305 306 298 279 287 209 208 216 221 213 225 234 248 264 241 241 253 259 257 259 256 251 248 238 233 234 234
5 358 352 347 346 347 349 349 345 341 345 348 347 336 314 297 304 300 289 276 275 276 238 223 239 251 258 258 267 258 241 229 252 252 248 264 278 267 256 251 241 237 238
358 353 352 352 355 355 354 357 358 352 345 346 351 347 349 351 344 356 297 260 258 239 230 245 231 251 246 245 245 233 227 224 235 265 266 276 282 279 272 259 252 245 243
358 358 2 4 9 5 3 0 5 2 358 352 351 352 358 23 32 28 42 54 180 187 190 222 194 191 185 192 194 199 212 227 240 256 268 276 279 284 275 266 254 249 246
2 3 6 9 9 8 6 4 4 5 5 1 356 345 346 342 354 6 35 54 67 100 153 162 173 185 191 197 199 205 221 233 248 255 261 271 279 280 272 267 263 253 246
3 4 5 7 6 2 360 360 358 357 356 360 12 5 336 336 340 11 19 44 85 108 138 153 175 192 212 231 242 248 252 256 265 267 262 259 266 267 267 272 268 261 252
2 3 3 4 2 1 0 359 355 355 353 353 2 1 328 310 323 317 30 12 23 15 227 208 230 238 240 249 260 265 268 271 270 275 279 273 259 261 267 267 269 266 259
3 6 7 7 3 2 358 352 351 353 354 357 2 1 360 347 328 317 320 334 337 329 302 272 257 264 271 272 273 270 272 276 277 275 277 275 268 262 262 265 271 270 264
10 10 10 10 4 1 359 358 357 356 358 9 13 15 17 16 351 327 315 313 308 319 302 279 265 261 265 269 274 282 283 282 280 278 279 276 272 267 264 264 265 265 264
11 12 13 9 9 7 359 355 359 359 3 7 11 14 16 6 355 336 308 316 317 334 318 291 288 292 282 281 285 284 290 288 282 277 280 281 280 275 269 263 262 263 262
8 13 12 14 16 13 13 10 7 8 6 4 9 7 4 359 0 346 332 302 311 316 305 296 328 320 302 302 299 297 293 286 280 274 278 281 285 284 281 274 263 260 260
7 12 13 20 19 18 16 16 14 13 18 18 12 10 3 355 2 4 348 5 353 293 316 333 329 333 318 313 312 309 304 297 288 281 277 278 278 283 278 274 273 262 257
7 9 15 23 26 26 25 25 24 25 23 19 17 19 20 21 7 8 13 7 357 322 322 326 320 322 313 304 307 336 348 339 328 309 285 278 279 279 279 276 275 269 261
1 3 10 18 21 23 25 28 26 24 21 20 15 14 10 9 9 6 5 356 350 336 324 326 312 311 315 300 286 296 302 302 301 302 290 290 290 290 285 279 274 267 261
352 351 357 360 4 5 10 15 16 16 16 8 4 10 11 9 2 347 349 345 345 337 335 328 310 305 305 297 298 303 303 303 305 301 293 286 282 290 296 284 271 266 258
340 343 342 345 341 343 354 359 1 4 6 11 19 26 30 27 21 11 338 339 328 320 333 329 325 336 334 335 335 323 319 313 310 307 298 292 288 298 304 290 270 267 265
335 336 341 338 341 341 346 350 355 358 359 359 6 15 26 28 30 33 30 7 351 342 323 323 316 325 330 321 334 328 338 344 334 322 329 315 308 299 306 293 269 264 266
341 337 336 338 335 340 346 349 350 353 352 355 353 354 0 6 13 22 31 31 20 359 332 311 313 315 310 318 339 323 323 323 328 331 321 322 314 307 309 303 276 264 263
326 330 332 327 322 320 324 327 333 332 335 337 343 346 344 348 352 355 360 1 3 4 358 358 324 315 304 323 322 321 314 320 327 324 329 335 323 318 314 314 288 272 262
313 319 318 312 309 310 305 310 311 318 320 320 324 329 331 329 328 329 330 336 342 346 341 336 350 353 330 325 313 317 309 308 312 315 320 328 333 336 324 320 299 277 254
305 319 326 328 319 310 305 302 303 306 306 310 310 312 321 325 321 318 317 312 321 328 335 338 332 325 328 325 324 326 318 311 324 324 329 325 341 349 344 338 310 231 258
294 307 312 316 320 314 310 308 295 297 301 302 297 298 304 314 320 318 318 307 303 319 324 332 339 337 328 324 323 327 326 311 323 328 332 335 347 351 359 12 353 38 204
291 299 304 311 312 315 313 308 306 298 299 304 300 297 296 299 306 311 311 309 287 296 313 321 319 316 326 325 314 316 338 308 327 344 339 350 357 356 348 23 16 103 123
Wind_Speed_850mb
41 45 45 45 43 41 40 36 31 32 35 34 33 33 38 36 37 40 42 57 59 61 54 42 42 32 27 22 19 14 8 6 9 13 22 26 27 25 22 22 21 23 35
43 42 44 46 45 46 45 42 40 37 37 37 36 33 30 33 39 37 41 43 56 67 65 55 44 41 30 25 22 17 13 11 10 12 17 21 28 29 27 23 27 24 45
42 41 45 47 48 48 45 46 43 39 35 35 37 37 34 29 28 33 43 36 50 65 72 50 51 48 40 30 26 18 21 21 20 19 17 18 22 30 31 30 29 31 36
42 44 46 48 50 49 48 46 46 43 38 35 35 32 32 30 25 25 27 42 43 63 72 67 51 47 43 38 42 33 33 26 24 21 17 15 11 22 31 35 35 37 41
43 46 49 50 50 49 46 44 38 38 38 36 36 29 24 25 23 21 14 15 25 44 34 58 66 48 54 52 46 35 38 30 22 15 13 13 13 15 22 32 39 41 44
46 49 49 47 44 43 40 44 41 31 30 34 32 25 16 10 11 11 8 10 10 4 15 23 38 34 47 46 29 27 30 28 21 22 21 24 24 26 27 31 37 46 48
47 48 45 43 42 42 43 43 43 35 28 33 26 21 13 8 15 13 17 10 6 11 12 15 13 20 14 13 13 12 12 7 18 26 30 34 34 36 35 34 40 46 54
47 45 44 42 42 42 42 43 45 41 31 32 25 18 15 5 11 11 10 11 14 12 13 16 20 22 22 19 16 17 20 22 27 30 30 38 38 35 34 32 35 44 51
46 42 40 39 41 43 42 43 42 42 39 27 25 18 13 10 21 8 10 9 7 6 6 15 16 15 15 14 15 16 20 24 30 32 33 35 36 35 35 39 39 41 48
42 41 38 38 40 42 42 42 40 40 36 33 25 18 10 16 10 9 8 14 12 5 2 8 10 12 12 14 17 21 25 26 30 33 35 33 39 39 42 41 42 44 46
39 39 38 39 39 43 43 43 40 36 32 28 28 30 21 12 8 10 15 16 13 11 10 10 12 15 17 18 20 26 28 32 34 36 40 41 41 44 47 50 50 46 50
37 37 39 38 40 42 44 43 39 33 28 26 27 24 21 18 16 10 16 14 12 7 8 10 12 14 16 20 23 27 29 32 32 36 37 40 44 47 50 53 52 50 48
38 39 39 39 41 42 43 39 34 30 25 23 25 26 21 18 18 16 15 14 10 14 13 10 10 9 10 11 16 20 25 30 33 32 32 35 36 41 47 52 55 55 53
36 36 35 36 37 40 44 38 30 29 26 19 22 25 22 21 20 16 14 14 12 11 9 7 8 11 14 15 19 24 27 27 31 33 32 33 38 39 38 40 46 54 56
32 31 31 33 35 38 41 39 31 28 28 25 25 25 23 21 19 17 12 11 5 6 6 5 8 16 14 18 21 15 16 20 26 32 38 40 40 49 51 45 44 50 56
28 26 26 27 32 36 39 38 35 30 25 25 25 26 27 26 18 16 15 10 5 8 10 15 9 16 15 15 10 9 10 16 19 21 26 33 40 47 48 47 50 50 53
26 22 20 22 26 30 34 37 36 34 31 30 31 30 27 26 23 15 13 13 10 8 10 15 12 18 19 15 17 22 26 29 27 29 32 32 32 39 45 50 56 58 59
23 20 19 18 21 23 29 32 34 36 37 33 32 29 27 26 23 16 13 10 11 11 13 15 18 13 16 20 26 30 31 32 34 35 39 45 43 46 51 56 55 57 61
21 21 19 18 19 19 26 29 31 33 36 34 31 29 30 31 32 23 10 11 11 13 12 12 14 15 16 17 18 18 23 28 34 35 34 34 36 45 53 52 49 53 57
19 21 21 19 19 19 22 25 28 30 31 30 26 22 26 30 34 39 25 14 15 14 14 17 21 22 19 14 15 15 17 22 26 26 29 35 40 46 49 45 43 46 52
17 19 21 21 20 20 22 25 27 28 27 26 24 21 21 25 27 28 28 28 23 20 19 20 20 16 14 13 17 18 29 31 33 30 30 37 46 43 43 43 39 41 48
17 19 24 26 24 21 22 24 27 26 24 25 26 23 23 23 24 24 24 22 21 23 20 21 14 16 9 13 20 27 29 31 34 33 41 39 39 42 38 39 34 39 40
22 25 26 31 34 31 29 27 27 27 25 26 27 27 27 27 27 27 25 24 23 22 21 20 18 13 13 18 27 32 29 32 33 30 32 41 45 35 31 35 25 23 22
25 28 28 33 37 35 32 32 34 34 31 30 29 28 29 31 30 33 28 26 24 24 25 23 21 20 20 20 26 33 35 29 28 25 31 35 44 45 29 27 12 7 16
27 31 33 33 43 36 31 32 37 40 39 35 34 33 32 33 33 33 34 25 19 19 25 21 17 16 19 22 25 30 26 21 24 22 22 36 41 44 24 34 13 1 4
32 39 42 46 48 40 34 32 33 38 42 38 37 37 34 34 35 33 34 29 24 18 20 23 21 22 23 27 27 24 27 15 19 19 25 35 41 39 17 28 17 11 12
Wind_Direction_850mb
2 3 7 8 7 4 359 352 336 328 328 326 319 313 288 287 279 264 254 244 239 223 211 217 213 210 210 211 208 210 219 247 272 270 254 240 235 241 248 238 234 213 210
8 11 10 9 7 5 3 357 349 332 317 317 317 317 316 304 289 277 264 251 237 230 214 216 209 210 217 215 213 220 238 246 267 273 271 266 248 239 236 237 241 234 210
6 8 5 2 359 357 356 355 353 349 335 320 307 302 303 306 305 283 274 244 235 218 208 212 212 213 214 212 202 226 243 251 256 259 257 258 260 248 239 232 232 239 217
10 5 358 352 351 350 348 346 343 347 348 345 335 318 299 296 305 306 298 279 287 209 208 216 221 213 225 234 248 264 241 241 253 259 257 259 256 251 248 238 233 234 234
5 358 352 347 346 347 349 349 345 341 345 348 347 336 314 297 304 300 289 276 275 276 238 223 239 251 258 258 267 258 241 229 252 252 248 264 278 267 256 251 241 237 238
358 353 352 352 355 355 354 357 358 352 345 346 351 347 349 351 344 356 297 260 258 239 230 245 231 251 246 245 245 233 227 224 235 265 266 276 282 279 272 259 252 245 243
358 358 2 4 9 5 3 0 5 2 358 352 351 352 358 23 32 28 42 54 180 187 190 222 194 191 185 192 194 199 212 227 240 256 268 276 279 284 275 266 254 249 246
2 3 6 9 9 8 6 4 4 5 5 1 356 345 346 342 354 6 35 54 67 100 153 162 173 185 191 197 199 205 221 233 248 255 261 271 279 280 272 267 263 253 246
3 4 5 7 6 2 360 360 358 357 356 360 12 5 336 336 340 11 19 44 85 108 138 153 175 192 212 231 242 248 252 256 265 267 262 259 266 267 267 272 268 261 252
2 3 3 4 2 1 0 359 355 355 353 353 2 1 328 310 323 317 30 12 23 15 227 208 230 238 240 249 260 265 268 271 270 275 279 273 259 261 267 267 269 266 259
3 6 7 7 3 2 358 352 351 353 354 357 2 1 360 347 328 317 320 334 337 329 302 272 257 264 271 272 273 270 272 276 277 275 277 275 268 262 262 265 271 270 264
10 10 10 10 4 1 359 358 357 356 358 9 13 15 17 16 351 327 315 313 308 319 302 279 265 261 265 269 274 282 283 282 280 278 279 276 272 267 264 264 265 265 264
11 12 13 9 9 7 359 355 359 359 3 7 11 14 16 6 355 336 308 316 317 334 318 291 288 292 282 281 285 284 290 288 282 277 280 281 280 275 269 263 262 263 262
8 13 12 14 16 13 13 10 7 8 6 4 9 7 4 359 0 346 332 302 311 316 305 296 328 320 302 302 299 297 293 286 280 274 278 281 285 284 281 274 263 260 260
7 12 13 20 19 18 16 16 14 13 18 18 12 10 3 355 2 4 348 5 353 293 316 333 329 333 318 313 312 309 304 297 288 281 277 278 278 283 278 274 273 262 257
7 9 15 23 26 26 25 25 24 25 23 19 17 19 20 21 7 8 13 7 357 322 322 326 320 322 313 304 307 336 348 339 328 309 285 278 279 279 279 276 275 269 261
1 3 10 18 21 23 25 28 26 24 21 20 15 14 10 9 9 6 5 356 350 336 324 326 312 311 315 300 286 296 302 302 301 302 290 290 290 290 285 279 274 267 261
352 351 357 360 4 5 10 15 16 16 16 8 4 10 11 9 2 347 349 345 345 337 335 328 310 305 305 297 298 303 303 303 305 301 293 286 282 290 296 284 271 266 258
340 343 342 345 341 343 354 359 1 4 6 11 19 26 30 27 21 11 338 339 328 320 333 329 325 336 334 335 335 323 319 313 310 307 298 292 288 298 304 290 270 267 265
335 336 341 338 341 341 346 350 355 358 359 359 6 15 26 28 30 33 30 7 351 342 323 323 316 325 330 321 334 328 338 344 334 322 329 315 308 299 306 293 269 264 266
341 337 336 338 335 340 346 349 350 353 352 355 353 354 0 6 13 22 31 31 20 359 332 311 313 315 310 318 339 323 323 323 328 331 321 322 314 307 309 303 276 264 263
326 330 332 327 322 320 324 327 333 332 335 337 343 346 344 348 352 355 360 1 3 4 358 358 324 315 304 323 322 321 314 320 327 324 329 335 323 318 314 314 288 272 262
313 319 318 312 309 310 305 310 311 318 320 320 324 329 331 329 328 329 330 336 342 346 341 336 350 353 330 325 313 317 309 308 312 315 320 328 333 336 324 320 299 277 254
305 319 326 328 319 310 305 302 303 306 306 310 310 312 321 325 321 318 317 312 321 328 335 338 332 325 328 325 324 326 318 311 324 324 329 325 341 349 344 338 310 231 258
294 307 312 316 320 314 310 308 295 297 301 302 297 298 304 314 320 318 318 307 303 319 324 332 339 337 328 324 323 327 326 311 323 328 332 335 347 351 359 12 353 38 204
291 299 304 311 312 315 313 308 306 298 299 304 300 297 296 299 306 311 311 309 287 296 313 321 319 316 326 325 314 316 338 308 327 344 339 350 357 356 348 23 16 103 123